STARS-ME (43640 NORAD) Tracking and Keplerian Element Data

This shows tracking and keplerian element data for the satellite.

Feedback or suggestion? Click here.




ElementValue
Catalog43640
NameSTARS-ME
Epoch Orbit15578
Epoch Day177.48090856
Epoch Year2021
RAAN176.1291
Inclination51.6078
Eccentricity0.0003401
Argument of Perigee286.8094
Mean Anonmoly73.2559
Mean Motion16.39860287
Decay Rate0.0625127
L11 43640U 98067PQ 21177.48090856 .06251270 12411-4 46174-3 0 9996
L22 43640 51.6078 176.1291 0003401 286.8094 73.2559 16.39860287155785



Live tracking and technical data element details for STARS-ME (NORAD 43640). STARS-ME can be tracked NOW for your location showing map with azimuth and elevation plus other details from your city location.







IsCatalogInMostPopularTable: catalog: 43640, numindb: 559
Update: records affected: 1



GetName: 43640 STARS-ME

Hit Count: updated at: Fri, 24 Jan 2025 23:36:57 GMT